,

(GMT )
Claresholm

Weather History for CWDK - December, 2013

Change the Weather History Date:

Friday, December 27, 2013

  Actual Average Record
Temperature  
Mean Temperature 34 °F -  
Max Temperature 55 °F - - ()
Min Temperature 11 °F - - ()
Degree Days  
Heating Degree Days 32    
Moisture  
Dew Point 25 °F    
Average Humidity 53    
Maximum Humidity 84    
Minimum Humidity 27    
Precipitation  
Precipitation 0.00 in - - ()
Sea Level Pressure  
Sea Level Pressure 29.87 in    
Wind  
Wind Speed 18 mph ()    
Max Wind Speed 31 mph    
Max Gust Speed 43 mph    
T = Trace of Precipitation, MM = Missing Value Source: Averaged Metar Reports

Daily Weather History Graph

Daily Weather History Graph

Search for Another Location

Airport or City:

Trip Planner

Search our weather history database for the weather conditions in past years. The results will help you decide how hot, cold, wet, or windy it might be!

Date:

Astronomy

Dec. 27, 2013 Rise Set
Actual Time 8:32 AM MST 4:39 PM MST
Civil Twilight 7:54 AM MST 5:17 PM MST
Nautical Twilight 7:12 AM MST 5:58 PM MST
Astronomical Twilight 6:33 AM MST 6:38 PM MST
Moon 2:48 AM MST (12/27) 1:09 PM MST (12/27)
Length of Visible Light 9h 23m
Length of Day
8h 06m
Waning Crescent, 28% of the Moon is Illuminated
Dec 27
Waning Crescent
Jan 1
New
Jan 7
First Quarter
Jan 15
Full
Jan 23
Last Quarter

Hourly Weather History & Observations

Time (MST) Temp. Windchill Dew Point Humidity Pressure Visibility Wind Dir Wind Speed Gust Speed Precip Events Conditions
12:00 AM 43.5 °F 33.5 °F 30.7 °F 61% 29.93 in - WSW 28.8 mph 34.5 mph N/A   Unknown
1:00 AM 42.1 °F 32.6 °F 30.6 °F 64% 29.95 in - WSW 23.0 mph 29.9 mph N/A   Unknown
2:00 AM 41.4 °F 32.1 °F 29.8 °F 64% 29.96 in - WSW 20.7 mph - N/A   Unknown
3:00 AM 40.8 °F 33.3 °F 28.9 °F 63% 29.97 in - WSW 13.8 mph - N/A   Unknown
4:00 AM 37.9 °F 31.5 °F 28.8 °F 70% 29.96 in - SW 9.2 mph - N/A   Unknown
5:00 AM 41 °F - 27 °F 46% 29.95 in - SW 13.8 mph - -  
5:00 AM 41.4 °F 34.0 °F 27.3 °F 57% 29.95 in - SW 13.8 mph 19.6 mph N/A   Unknown
6:00 AM 42.1 °F 35.2 °F 26.1 °F 53% 29.93 in - SW 12.7 mph - N/A   Unknown
7:00 AM 45.1 °F 37.9 °F 25.7 °F 47% 29.92 in - WSW 17.3 mph - N/A   Unknown
8:00 AM 45.9 °F 38.8 °F 25.5 °F 45% 29.91 in - SW 17.3 mph - N/A   Unknown
9:00 AM 45.3 °F 39.0 °F 25.3 °F 46% 29.91 in - WSW 13.8 mph 19.6 mph N/A   Unknown
10:00 AM 46.8 °F - 24.8 °F 42% 29.88 in - SW 13.8 mph - N/A   Unknown
11:00 AM 48 °F - 25 °F 27% 29.87 in - SW 17.3 mph - -  
11:00 AM 48.0 °F - 24.8 °F 40% 29.87 in - SW 17.3 mph 24.2 mph N/A   Unknown
12:00 PM 50.4 °F - 24.6 °F 37% 29.80 in - West 24.2 mph 33.4 mph N/A   Unknown
1:00 PM 54.5 °F - 24.3 °F 31% 29.79 in - WSW 11.5 mph 17.3 mph N/A   Unknown
2:00 PM 53.1 °F - 22.6 °F 31% 29.75 in - WSW 15.0 mph 24.2 mph N/A   Unknown
3:00 PM 51.6 °F - 22.8 °F 32% 29.75 in - West 16.1 mph 31.1 mph N/A   Unknown
4:00 PM 45.9 °F 37.6 °F 26.8 °F 47% 29.78 in - West 23.0 mph 32.2 mph N/A   Unknown
5:00 PM 44 °F - 28 °F 41% 29.73 in - WSW 23.0 mph - -  
5:00 PM 43.5 °F 34.5 °F 28.0 °F 54% 29.73 in - WSW 23.0 mph 34.5 mph N/A   Unknown
6:00 PM 43.2 °F 32.6 °F 28.6 °F 56% 29.67 in - WSW 31.1 mph 42.6 mph N/A   Unknown
7:00 PM 42.8 °F 34.0 °F 28.0 °F 56% 29.66 in - WSW 20.7 mph 27.6 mph N/A   Unknown
8:00 PM 41.5 °F 30.4 °F 28.0 °F 59% 29.64 in - West 31.1 mph 41.4 mph N/A   Unknown
9:00 PM 23.9 °F 7.5 °F 19.6 °F 84% 29.88 in - North 26.5 mph 35.7 mph N/A   Unknown
10:00 PM 16.0 °F -3.2 °F 11.1 °F 81% 30.01 in - North 26.5 mph 38.0 mph N/A   Unknown
11:00 PM 12 °F - 7 °F 71% 30.12 in - North 26.5 mph - -  
11:00 PM 11.8 °F -8.7 °F 7.0 °F 81% 30.12 in - North 26.5 mph 36.8 mph N/A   Unknown